TimeEST,TemperatureF,Dew PointF,Humidity,Sea Level PressureIn,VisibilityMPH,Wind Direction,Wind SpeedMPH,Gust SpeedMPH,PrecipitationIn,Events,Conditions,WindDirDegrees,DateUTC
12:15 AM,41.7,41.7,100,30.00,1.5,SW,3.5,-,N/A,Rain,Light Rain,230,2013-12-09 05:15:00
12:35 AM,42.6,42.6,100,29.99,10.0,South,4.6,-,N/A,,Overcast,170,2013-12-09 05:35:00
12:55 AM,40.8,40.8,100,30.00,2.5,West,3.5,-,N/A,Rain,Rain,260,2013-12-09 05:55:00
1:15 AM,38.1,38.1,100,30.00,0.5,West,3.5,-,N/A,Fog,Fog,280,2013-12-09 06:15:00
1:35 AM,37.8,37.8,100,30.02,0.8,WNW,4.6,-,N/A,,Overcast,300,2013-12-09 06:35:00
1:55 AM,36.0,36.0,100,30.01,2.5,Calm,Calm,-,N/A,,Overcast,0,2013-12-09 06:55:00
2:15 AM,37.4,37.4,100,30.03,1.8,Calm,Calm,-,N/A,,Overcast,0,2013-12-09 07:15:00
2:35 AM,37.8,37.8,100,30.03,2.5,Calm,Calm,-,N/A,,Overcast,0,2013-12-09 07:35:00
2:55 AM,38.3,38.3,100,30.04,2.5,Calm,Calm,-,N/A,,Overcast,0,2013-12-09 07:55:00
3:15 AM,38.5,38.5,100,30.04,3.0,Calm,Calm,-,N/A,,Overcast,0,2013-12-09 08:15:00
3:35 AM,38.3,38.3,100,30.04,4.0,West,3.5,-,N/A,,Overcast,280,2013-12-09 08:35:00
3:55 AM,38.3,38.3,100,30.04,5.0,Calm,Calm,-,N/A,,Overcast,0,2013-12-09 08:55:00
4:15 AM,38.3,38.3,100,30.05,4.0,West,4.6,-,N/A,,Overcast,260,2013-12-09 09:15:00
4:35 AM,38.3,38.3,100,30.04,5.0,West,4.6,-,N/A,,Overcast,270,2013-12-09 09:35:00
4:55 AM,38.3,38.3,100,30.04,7.0,Calm,Calm,-,N/A,,Overcast,0,2013-12-09 09:55:00
5:15 AM,38.5,38.5,100,30.05,4.0,Calm,Calm,-,N/A,,Overcast,0,2013-12-09 10:15:00
5:35 AM,38.5,38.5,100,30.05,2.5,Calm,Calm,-,N/A,,Overcast,0,2013-12-09 10:35:00
5:55 AM,39.2,39.2,100,30.05,3.0,Calm,Calm,-,N/A,,Overcast,0,2013-12-09 10:55:00
6:15 AM,39.2,39.2,100,30.05,3.0,Calm,Calm,-,N/A,,Overcast,0,2013-12-09 11:15:00
6:35 AM,39.4,39.4,100,30.06,7.0,Calm,Calm,-,N/A,,Overcast,0,2013-12-09 11:35:00
6:55 AM,39.4,39.4,100,30.07,10.0,Calm,Calm,-,N/A,,Overcast,0,2013-12-09 11:55:00
7:15 AM,39.4,39.4,100,30.08,2.0,NW,3.5,-,N/A,,Overcast,310,2013-12-09 12:15:00
7:35 AM,39.2,39.2,100,30.10,1.2,Calm,Calm,-,N/A,,Overcast,0,2013-12-09 12:35:00
7:55 AM,39.2,39.2,100,30.10,2.0,West,8.1,-,N/A,,Overcast,280,2013-12-09 12:55:00
8:15 AM,39.2,39.2,100,30.10,10.0,West,5.8,-,N/A,,Overcast,270,2013-12-09 13:15:00
8:35 AM,38.8,38.7,99,30.10,10.0,WNW,5.8,-,N/A,,Overcast,290,2013-12-09 13:35:00
8:55 AM,38.8,38.5,99,30.12,10.0,West,4.6,-,N/A,,Overcast,280,2013-12-09 13:55:00
9:15 AM,38.8,38.5,99,30.12,10.0,West,4.6,-,N/A,,Overcast,280,2013-12-09 14:15:00
9:35 AM,39.0,38.5,98,30.13,7.0,West,4.6,-,N/A,,Overcast,270,2013-12-09 14:35:00
9:55 AM,39.2,38.5,97,30.14,2.5,NNW,4.6,-,N/A,,Overcast,340,2013-12-09 14:55:00
10:15 AM,38.3,38.1,99,30.15,3.0,NW,3.5,-,N/A,,Overcast,320,2013-12-09 15:15:00
10:35 AM,38.1,37.8,99,30.14,2.5,NW,5.8,-,N/A,,Overcast,320,2013-12-09 15:35:00
10:55 AM,37.9,37.6,99,30.15,5.0,NW,4.6,-,N/A,,Overcast,310,2013-12-09 15:55:00
11:15 AM,37.8,37.4,99,30.16,10.0,WNW,3.5,-,N/A,,Overcast,290,2013-12-09 16:15:00
11:35 AM,37.8,37.2,98,30.15,10.0,NW,4.6,-,N/A,,Overcast,320,2013-12-09 16:35:00
11:55 AM,37.9,37.4,98,30.15,10.0,NW,5.8,-,N/A,,Overcast,320,2013-12-09 16:55:00
12:15 PM,37.8,37.2,98,30.15,10.0,WNW,5.8,-,N/A,,Overcast,300,2013-12-09 17:15:00
12:35 PM,37.9,37.0,97,30.15,3.0,West,4.6,-,N/A,,Overcast,280,2013-12-09 17:35:00
12:55 PM,38.3,37.4,97,30.15,5.0,WSW,3.5,-,N/A,,Overcast,250,2013-12-09 17:55:00
1:15 PM,38.5,37.6,97,30.13,5.0,WNW,3.5,-,N/A,,Overcast,290,2013-12-09 18:15:00
1:35 PM,38.3,37.4,97,30.13,5.0,West,4.6,-,N/A,,Overcast,270,2013-12-09 18:35:00
1:55 PM,37.9,36.7,95,30.12,5.0,NW,5.8,-,N/A,,Overcast,310,2013-12-09 18:55:00
2:15 PM,38.3,37.2,96,30.12,7.0,WNW,4.6,-,N/A,,Overcast,290,2013-12-09 19:15:00
2:35 PM,38.3,37.0,95,30.12,7.0,Calm,Calm,-,N/A,,Overcast,0,2013-12-09 19:35:00
2:55 PM,37.9,36.7,95,30.12,4.0,NW,5.8,-,N/A,,Overcast,320,2013-12-09 19:55:00
3:15 PM,37.8,36.7,96,30.13,4.0,NNW,3.5,-,N/A,,Overcast,330,2013-12-09 20:15:00
3:35 PM,37.4,36.5,97,30.15,4.0,NW,4.6,-,N/A,,Overcast,310,2013-12-09 20:35:00
3:55 PM,37.2,36.3,97,30.16,4.0,WNW,5.8,-,N/A,,Overcast,300,2013-12-09 20:55:00
4:15 PM,36.7,35.6,96,30.17,5.0,NNW,3.5,-,N/A,,Overcast,330,2013-12-09 21:15:00
4:35 PM,36.5,35.1,95,30.17,10.0,WNW,3.5,-,N/A,,Overcast,300,2013-12-09 21:35:00
4:55 PM,36.9,34.7,92,30.17,10.0,WNW,4.6,-,N/A,,Overcast,290,2013-12-09 21:55:00
5:15 PM,36.9,34.5,91,30.17,10.0,Calm,Calm,-,N/A,,Overcast,0,2013-12-09 22:15:00
5:35 PM,36.9,34.0,89,30.18,10.0,WNW,4.6,-,N/A,,Overcast,300,2013-12-09 22:35:00
5:55 PM,36.5,33.1,87,30.18,10.0,WNW,6.9,-,N/A,,Overcast,290,2013-12-09 22:55:00
6:15 PM,36.5,32.4,85,30.18,10.0,West,3.5,-,N/A,,Overcast,280,2013-12-09 23:15:00
6:35 PM,36.1,32.9,88,30.19,10.0,WNW,4.6,-,N/A,,Overcast,300,2013-12-09 23:35:00
6:55 PM,36.0,31.8,85,30.20,10.0,WNW,5.8,-,N/A,,Overcast,290,2013-12-09 23:55:00
7:15 PM,35.8,30.9,82,30.20,10.0,West,4.6,-,N/A,,Overcast,260,2013-12-10 00:15:00
7:35 PM,35.6,30.9,83,30.19,10.0,WSW,3.5,-,N/A,,Overcast,250,2013-12-10 00:35:00
7:55 PM,35.6,30.9,83,30.19,10.0,Calm,Calm,-,N/A,,Overcast,0,2013-12-10 00:55:00
8:15 PM,35.2,31.5,86,30.19,10.0,Calm,Calm,-,N/A,,Overcast,0,2013-12-10 01:15:00
8:35 PM,34.7,31.6,89,30.18,10.0,NW,3.5,-,N/A,,Overcast,320,2013-12-10 01:35:00
8:55 PM,34.9,30.9,85,30.18,10.0,North,4.6,-,N/A,,Overcast,350,2013-12-10 01:55:00
9:15 PM,34.3,31.6,90,30.17,10.0,NNW,3.5,-,N/A,,Overcast,340,2013-12-10 02:15:00
9:35 PM,33.8,31.1,90,30.17,10.0,NNW,3.5,-,N/A,,Overcast,340,2013-12-10 02:35:00
9:55 PM,33.8,31.1,90,30.16,10.0,Calm,Calm,-,N/A,,Overcast,0,2013-12-10 02:55:00
10:15 PM,33.3,31.3,92,30.14,10.0,NNE,4.6,-,N/A,,Overcast,20,2013-12-10 03:15:00
10:35 PM,32.9,31.1,93,30.13,10.0,NE,3.5,-,N/A,,Overcast,40,2013-12-10 03:35:00
10:55 PM,32.4,30.6,93,30.14,10.0,North,3.5,-,N/A,,Overcast,10,2013-12-10 03:55:00
11:15 PM,32.0,30.4,94,30.12,10.0,North,4.6,-,N/A,,Overcast,360,2013-12-10 04:15:00
11:35 PM,32.0,30.6,94,30.12,10.0,North,3.5,-,N/A,,Overcast,360,2013-12-10 04:35:00
11:55 PM,32.0,29.8,92,30.12,10.0,North,4.6,-,N/A,,Overcast,360,2013-12-10 04:55:00